Flag for Hungary Weather past 2 weeks in Miskolc, Hungary

Now
41 °F

Scattered clouds.


Feels Like: 37 °F
Forecast: 26 / 47 °F
Wind: 6 mph from North

Location: Miskolc

Current Time: Mar 6, 2015 at 10:45:14 AM

Latest Report: Mar 6, 2015 at 10:00 AM


Visibility: 25 mi

Pressure: 30.48 "Hg

Humidity: 51%

Dew point: 24 °F

Location of MiskolcLocation

Historic Weather in Miskolc — Graph

°F

Miskolc temperature yesterday

Maximum temperature yesterday: 46 °F (at 2:00 PM)
Minimum temperature yesterday: 28 °F (at 7:00 AM)
Average temperature yesterday: 37 °F

Past Weeks' High & Low Weather Summary

 TemperatureHumidityPressure
High54 °F (Feb 24, 2:00 PM)93% (Feb 23, 8:00 AM)30.54 "Hg (Feb 23, 8:00 AM)
Low24 °F (Feb 21, 6:00 AM)29% (Mar 4, 11:00 AM)29.66 "Hg (Mar 2, 4:00 PM)
Average41 °F75%30.01 "Hg
* Reported Feb 19 9:00 AM — Mar 6 9:00 AM, Miskolc, Weather by CustomWeather, © 2015

Note: Actual official high and low records may vary slightly from our data, if they occured in-between our weather recording intervals... More about our weather records

Advertising

Miskolc weather history for previous 24 hours

 ConditionsComfort  
Time TempWeatherWind HumidityBarometerVisibility
9:00 AM
Fri, Mar 6
38 °FPassing clouds.5 mph55%30.48 "Hg22 mi
8:00 AM35 °FSunny.2 mph62%30.47 "Hg19 mi
7:00 AM30 °FSunny.2 mph79%30.45 "Hg16 mi
6:00 AM30 °FClear.2 mph83%30.44 "Hg12 mi
5:00 AM29 °FClear.1 mph85%30.43 "Hg12 mi
3:00 AM30 °FClear.2 mph81%30.42 "Hg12 mi
2:00 AM29 °FClear.1 mph80%30.43 "Hg12 mi
1:00 AM30 °FPassing clouds.1 mph79%30.42 "Hg16 mi
12:00 AM30 °FClear.1 mph77%30.42 "Hg12 mi
11:00 PM
Thu, Mar 5
31 °FClear.1 mph73%30.41 "Hg12 mi
10:00 PM35 °FPassing clouds.2 mph64%30.40 "Hg12 mi
9:00 PM38 °FPassing clouds.3 mph59%30.39 "Hg12 mi
7:00 PM40 °FPassing clouds.2 mph54%30.36 "Hg16 mi
6:00 PM42 °FPassing clouds.2 mph54%30.33 "Hg22 mi
5:00 PM44 °FOvercast.3 mph44%30.32 "Hg25 mi
4:00 PM45 °FOvercast.5 mph41%30.29 "Hg25 mi
3:00 PM46 °FOvercast.5 mph42%30.30 "Hg22 mi
2:00 PM46 °FOvercast.5 mph40%30.32 "Hg19 mi
1:00 PM45 °FPartly sunny.5 mph43%30.33 "Hg19 mi
12:00 PM43 °FPartly sunny.3 mph51%30.35 "Hg19 mi
11:00 AM43 °FPartly sunny.3 mph52%30.35 "Hg19 mi
10:00 AM39 °FPartly sunny.No wind69%30.36 "Hg16 mi
Weather by CustomWeather, © 2015

See weather overviewHow to use our weather pages